Location: Manning
(56.9235°N, 117.6289°W)
Time: 02:51:50
(UTC+00:00)

N. Korean satellite - Visible Passes

Search period start: 27 November 2021 00:00
Search period end: 07 December 2021 00:00
Orbit: 447 x 495 km, 97.3° (Epoch: 26 November)

Date Brightness Start Highest point End Pass type
(mag) Time Alt. Az. Time Alt. Az. Time Alt. Az.
27 Nov 6.7 00:01:56 10° SSE 00:05:31 83° WSW 00:09:05 10° NNW visible
27 Nov 10.1 01:38:18 10° WSW 01:39:19 11° W 01:40:19 10° WNW visible
27 Nov 7.9 12:52:10 10° NNE 12:55:26 37° E 12:58:36 10° SSE visible
27 Nov 7.5 14:25:38 10° N 14:28:30 25° WNW 14:31:21 10° WSW visible
28 Nov 9.5 01:07:54 10° SW 01:10:33 19° W 01:13:13 10° NW visible
28 Nov 9.1 12:24:08 10° NE 12:26:46 20° E 12:29:22 10° SE visible
28 Nov 6.7 13:56:53 10° N 14:00:12 45° WNW 14:03:27 10° SW visible
29 Nov 8.4 00:38:36 10° SSW 00:41:54 35° W 00:45:12 10° NNW visible
29 Nov 9.9 11:56:57 10° ENE 11:58:00 11° E 11:59:02 10° ESE visible
29 Nov 6.3 13:28:19 10° NNE 13:31:47 89° WNW 13:35:10 10° SSW visible
29 Nov 8.3 15:02:46 10° NNW 15:04:27 13° NW 15:06:06 10° W visible
30 Nov 6.9 00:09:48 10° S 00:13:21 69° WSW 00:16:53 10° NNW visible
30 Nov 7.5 12:59:56 10° NNE 13:03:15 45° E 13:06:31 10° S visible
30 Nov 7.7 14:33:33 10° N 14:36:15 21° WNW 14:38:54 10° WSW visible
01 Dec 9.7 01:16:06 10° SW 01:18:26 16° W 01:20:46 10° NW visible
01 Dec 8.8 12:31:46 10° NE 12:34:37 24° E 12:37:24 10° SSE visible
01 Dec 6.9 14:04:44 10° N 14:07:56 37° WNW 14:11:06 10° SW visible
02 Dec 8.7 00:46:35 10° SSW 00:49:44 29° W 00:52:51 10° NNW visible
02 Dec 9.7 12:04:10 10° ENE 12:05:51 13° E 12:07:31 10° ESE visible
02 Dec 6.2 13:36:06 10° NNE 13:39:31 74° WNW 13:42:54 10° SSW visible
02 Dec 8.4 15:10:57 10° NNW 15:12:06 11° NW 15:13:15 10° WNW visible
03 Dec 7.3 00:17:38 10° S 00:21:07 56° WSW 00:24:35 10° NNW visible
03 Dec 7.1 13:07:38 10° NNE 13:11:00 54° E 13:14:19 10° S visible
03 Dec 7.8 14:41:27 10° NNW 14:43:54 19° WNW 14:46:20 10° WSW visible
04 Dec 9.8 01:24:20 10° WSW 01:26:15 14° W 01:28:09 10° NW visible
04 Dec 8.5 12:39:22 10° NE 12:42:21 28° E 12:45:19 10° SSE visible
04 Dec 7.1 14:12:31 10° N 14:15:36 32° WNW 14:18:39 10° SW visible
05 Dec 9.0 00:54:32 10° SSW 00:57:29 25° W 01:00:25 10° NW visible
05 Dec 9.5 12:11:31 10° NE 12:13:37 15° E 12:15:42 10° SE visible
05 Dec 6.3 13:43:49 10° N 13:47:11 61° WNW 13:50:32 10° SSW visible
06 Dec 7.7 00:25:26 10° S 00:28:49 46° W 00:32:12 10° NNW visible
06 Dec 6.7 13:15:16 10° NNE 13:18:41 66° ESE 13:22:02 10° S visible
06 Dec 8.0 14:49:18 10° NNW 14:51:29 16° WNW 14:53:40 10° W visible
